Location: ?????????
(38.0736°N, 23.2119°E)
Time: 14:25:24
(UTC+00:00)

USA 229 DEB - Visible Passes

Search period start: 12 July 2024 00:00
Search period end: 22 July 2024 00:00
Orbit: 892 x 1319 km, 63.4° (Epoch: 30 May)

Date Brightness Start Highest point End Pass type
(mag) Time Alt. Az. Time Alt. Az. Time Alt. Az.
12 Jul 4.9 00:40:09 19° W 00:43:21 28° NW 00:49:01 10° NNE visible
12 Jul 4.7 22:09:00 28° E 22:09:00 28° E 22:13:01 10° NE visible
12 Jul 4.3 23:56:25 36° W 23:58:05 42° NW 00:04:22 10° NNE visible
13 Jul 5.9 01:48:52 10° NW 01:51:04 12° NNW 01:53:19 10° N visible
13 Jul 5.4 21:25:13 15° E 21:25:13 15° E 21:27:01 10° ENE visible
13 Jul 3.5 23:12:37 66° WNW 23:13:00 68° NW 23:19:35 10° NNE visible
14 Jul 5.7 01:01:32 10° WNW 01:05:19 16° NNW 01:09:18 10° N visible
14 Jul 3.5 22:28:47 68° ENE 22:28:47 68° ENE 22:34:38 10° NE visible
15 Jul 5.3 00:16:11 14° W 00:19:45 23° NW 00:24:55 10° NNE visible
15 Jul 4.3 21:44:54 37° E 21:44:54 37° E 21:49:27 10° NE visible
15 Jul 4.7 23:32:18 27° W 23:34:22 33° NW 23:40:21 10° NNE visible
16 Jul 5.0 21:00:58 21° E 21:00:58 21° E 21:03:52 10° ENE visible
16 Jul 4.0 22:48:22 48° WNW 22:49:11 51° NW 22:55:38 10° NNE visible
17 Jul 5.9 00:38:57 10° NW 00:41:54 13° NNW 00:44:59 10° N visible
17 Jul 5.5 20:16:59 11° ENE 20:16:59 11° ENE 20:17:21 10° ENE visible
17 Jul 3.4 22:04:22 81° NNW 22:04:22 81° NNW 22:10:47 10° NNE visible
17 Jul 5.7 23:51:57 10° WNW 23:56:13 18° NW 00:00:45 10° N visible
18 Jul 3.7 21:20:17 54° E 21:20:17 54° E 21:25:45 10° NE visible
18 Jul 5.2 23:07:40 18° W 23:10:44 26° NW 23:16:16 10° NNE visible
19 Jul 4.4 20:36:08 31° E 20:36:08 31° E 20:40:26 10° NE visible
19 Jul 4.6 22:23:29 32° W 22:25:26 39° NW 22:31:39 10° NNE visible
20 Jul 6.2 00:16:45 10° NW 00:18:33 11° NNW 00:20:21 10° N visible
20 Jul 5.0 19:51:51 18° E 19:51:51 18° E 19:54:36 10° ENE visible
20 Jul 3.8 21:39:12 53° W 21:40:19 62° NW 21:46:53 10° NNE visible
20 Jul 5.9 23:29:11 10° WNW 23:32:46 15° NNW 23:36:30 10° N visible
21 Jul 3.3 20:54:46 72° S 20:55:24 82° ESE 21:01:58 10° NE visible
21 Jul 5.6 22:42:30 10° W 22:47:10 21° NW 22:52:09 10° N visible
